Weather History for KNEL - October, 2012

Change the Weather History Date:

Monday, October 8, 2012

  Actual Average Record
Temperature  
Mean Temperature 46 °F -  
Max Temperature 51 °F 66 °F 78 °F (1997)
Min Temperature 39 °F 46 °F 32 °F (1999)
Degree Days  
Heating Degree Days 20    
Moisture  
Dew Point 43 °F    
Average Humidity 91    
Maximum Humidity 100    
Minimum Humidity 71    
Precipitation  
Precipitation 0.00 in - - ()
Sea Level Pressure  
Sea Level Pressure 30.20 in    
Wind  
Wind Speed 2 mph (NW)    
Max Wind Speed 5 mph    
Max Gust Speed -    
Visibility 6 miles    
Events Fog    
Averages and records for this station are not official NWS values.
T = Trace of Precipitation, MM = Missing Value Source: NWS Daily Summary

Daily Weather History Graph

Daily Weather History Graph

Search for Another Location

Airport or City:

Trip Planner

Search our weather history database for the weather conditions in past years. The results will help you decide how hot, cold, wet, or windy it might be!

Date:

Astronomy

Oct. 08, 2012 Rise Set
Actual Time 7:01 AM EDT 6:27 PM EDT
Civil Twilight 6:34 AM EDT 6:54 PM EDT
Nautical Twilight 6:02 AM EDT 7:26 PM EDT
Astronomical Twilight 5:31 AM EDT 7:57 PM EDT
Moon No Moon Rise 2:15 PM EDT (10/8)
Length of Visible Light 12h 20m
Length of Day
11h 26m
Waning Gibbous, 46% of the Moon is Illuminated
Oct 8
Waning Gibbous
Oct 15
New
Oct 21
First Quarter
Oct 29
Full
Nov 6
Last Quarter

Hourly Weather History & Observations

Time (EDT) Temp. Windchill Dew Point Humidity Pressure Visibility Wind Dir Wind Speed Gust Speed Precip Events Conditions
12:00 AM 48.0 °F - 46.0 °F 93% 30.12 in 6.0 mi Calm Calm - N/A   Scattered Clouds
1:00 AM 44.6 °F - 44.6 °F 100% 30.13 in 2.5 mi Calm Calm - N/A   Clear
1:06 AM 44.1 °F - 43.0 °F 96% 30.13 in 2.5 mi Calm Calm - N/A   Clear
1:39 AM 42.8 °F - 42.8 °F 100% 30.13 in 0.2 mi Calm Calm - N/A Fog Fog
2:00 AM 42.1 °F - 41.0 °F 96% 30.13 in 0.2 mi Calm Calm - N/A Fog Fog
3:00 AM 42.8 °F 40.1 °F 42.8 °F 100% 30.15 in 2.0 mi NW 4.6 mph - N/A   Mostly Cloudy
3:08 AM 42.8 °F 41.1 °F 42.8 °F 100% 30.15 in 3.0 mi NW 3.5 mph - N/A   Scattered Clouds
3:38 AM 43.0 °F 40.3 °F 42.1 °F 97% 30.14 in 3.0 mi WNW 4.6 mph - N/A   Clear
3:49 AM 41.0 °F 38.0 °F 41.0 °F 100% 30.15 in 2.5 mi WNW 4.6 mph - N/A   Clear
4:00 AM 42.1 °F 40.2 °F 42.1 °F 100% 30.15 in 2.5 mi NW 3.5 mph - N/A   Clear
4:16 AM 42.8 °F 41.1 °F 42.8 °F 100% 30.15 in 3.0 mi NNW 3.5 mph - N/A   Clear
5:23 AM 39.2 °F - 39.2 °F 100% 30.16 in 2.5 mi Calm Calm - N/A   Clear
5:42 AM 41.0 °F 39.0 °F 39.2 °F 93% 30.17 in 3.0 mi NW 3.5 mph - N/A   Clear
6:00 AM 39.0 °F 36.8 °F 39.0 °F 100% 30.19 in 3.0 mi WNW 3.5 mph - N/A   Clear
6:09 AM 39.2 °F - 39.2 °F 100% 30.19 in 2.5 mi Calm Calm - N/A   Clear
6:28 AM 39.2 °F 37.0 °F 39.2 °F 100% 30.19 in 3.0 mi NW 3.5 mph - N/A   Clear
7:12 AM 39.2 °F 37.0 °F 39.2 °F 100% 30.22 in 3.0 mi WNW 3.5 mph - N/A   Clear
8:00 AM 41.0 °F 38.0 °F 41.0 °F 100% 30.24 in 4.0 mi NW 4.6 mph - N/A   Clear
9:00 AM 44.1 °F 41.5 °F 43.0 °F 96% 30.25 in 8.0 mi NW 4.6 mph - N/A   Clear
10:00 AM 48.0 °F - 43.0 °F 83% 30.27 in 10.0 mi Variable 3.5 mph - N/A   Clear
12:00 PM 51.1 °F - 42.1 °F 71% 30.27 in 10.0 mi Calm Calm - N/A   Scattered Clouds
1:00 PM 51.1 °F - 43.0 °F 74% 30.28 in 10.0 mi Calm Calm - N/A   Overcast
2:00 PM 51.1 °F - 44.1 °F 77% 30.26 in 10.0 mi Calm Calm - N/A   Overcast
3:00 PM 51.1 °F - 45.0 °F 80% 30.25 in 10.0 mi Calm Calm - 0.00 in   Mostly Cloudy
4:00 PM 52.0 °F - 46.0 °F 80% 30.25 in 10.0 mi NW 3.5 mph - N/A   Overcast
5:00 PM 52.0 °F - 46.0 °F 80% 30.29 in 10.0 mi West 4.6 mph - N/A   Overcast
6:00 PM 51.1 °F - 46.0 °F 83% 30.26 in 10.0 mi Calm Calm - N/A   Overcast
7:00 PM 50.0 °F - 46.0 °F 86% 30.25 in 10.0 mi Calm Calm - N/A   Overcast
8:00 PM 50.0 °F - 46.0 °F 86% 30.25 in 10.0 mi Calm Calm - N/A   Overcast
9:00 PM 50.0 °F - 45.0 °F 83% 30.24 in 10.0 mi Variable 3.5 mph - N/A   Overcast
10:00 PM 50.0 °F - 44.1 °F 80% 30.23 in 10.0 mi North 3.5 mph - 0.00 in   Overcast
11:00 PM 50.0 °F - 45.0 °F 83% 30.22 in 10.0 mi Variable 3.5 mph - N/A   Overcast